Regional Weather Roundup
Issued by NWS

Home | Current Version | Previous Version | Graphics & Text | Print | Product List | Glossary On
Versions: 1 2 3 4 5 6 7 8 9 10 11 12 13 14 15 16 17 18 19 20 21 22 23 24 25 26 27 28 29 30 31 32 33 34 35 36 37 38 39 40 41 42 43 44 45 46 47 48 49 50
000
ASUS43 KMPX 231801
RWRMN
WEATHER ROUNDUP FOR MINNESOTA
NATIONAL WEATHER SERVICE TWIN CITIES/CHANHASSEN MN
100 PM CDT MON MAY 23 2016


NOTE: "FAIR" INDICATES FEW OR NO CLOUDS BELOW 12,000 FEET WITH NO
SIGNIFICANT WEATHER AND/OR OBSTRUCTIONS TO VISIBILITY. N/A MEANS
CURRENT SKY AND/OR WEATHER CONDITIONS ARE NOT AVAILABLE.

MNZ060>063-068>070-231900-
   Twin Cities Metro

CITY           SKY/WX    TMP DP  RH WIND       PRES   REMARKS
TWIN CITIES    CLOUDY    78  58  49 S20G33    29.74F
6HR MIN TEMP:  69; 6HR MAX TEMP:  78; 6HR PCP: TRACE;

ST PAUL        CLOUDY    78  59  51 S23G35    29.74F
CRYSTAL        PTSUNNY   80  57  45 SE17      29.72R
BLAINE         CLOUDY    79  57  47 SE18G24   29.73R
EDEN PRAIRIE   CLOUDY    78  59  51 S20G28    29.73R
6HR MIN TEMP:  68; 6HR MAX TEMP:  79; 6HR PCP:  0.01;

SOUTH ST PAUL  PTSUNNY   78  56  46 SE14G28   29.75S
LAKE ELMO      FAIR      77  59  53 S18G30    29.76F
$$
MNZ001>005-007-008-013>017-022>024-027-028-231900-
   Northwest Minnesota

CITY           SKY/WX    TMP DP  RH WIND       PRES   REMARKS
BEMIDJI        MOSUNNY   75  56  52 SW14G20   29.67S
HALLOCK        SUNNY     73  61  64 SW14      29.61R
ROSEAU         SUNNY     73  61  64 W15G22    29.62R
WARROAD        MOSUNNY   73  61  64 SW15G24   29.62R
THIEF RVR FALL PTSUNNY   73  57  56 W14       29.67R
CROOKSTON      MOSUNNY   75  61  60 W10       29.66R
FOSSTON        SUNNY     72  57  60 W9        29.68S
DETROIT LAKES  MOSUNNY   73  54  49 W12       29.71R
MOORHEAD       CLOUDY    79  46  31 W12G17    29.67S
PARK RAPIDS    CLOUDY    74  58  57 SW20G25   29.70R
MAHNOMEN       FAIR      73  57  56 W12G17    29.68R
$$
MNZ006-009>011-018-025>026-231900-
   North Central Minnesota

CITY           SKY/WX    TMP DP  RH WIND       PRES   REMARKS
BAUDETTE       PTSUNNY   73  56  54 W16G25    29.63R
FLAG ISLAND    MOSUNNY   70  55  60 SW15      29.59R
INTL FALLS     LGT RAIN  70  58  65 SW14      29.64R
6HR MIN TEMP:  60; 6HR MAX TEMP:  74; 6HR PCP:  0.02;

WASKISH        CLOUDY    70  61  73 SW10      29.67R
BIG FORK       CLOUDY    72  57  60 SW15      29.68S
LONGVILLE      CLOUDY    70  57  64 S13G23    29.71S
GRAND RAPIDS   CLOUDY   N/A N/A N/A SW14G22   29.72R
CRANE LAKE     CLOUDY    75  55  50 S14G22    29.67S
ORR            CLOUDY    73  54  49 S13G22    29.66R
COOK           CLOUDY    75  55  50 SW16G24   29.70S
WALKER         CLOUDY    72  59  63 S12G22    29.69R
$$
MNZ012-019>021-037-231900-
   Northeast Minnesota

CITY           SKY/WX    TMP DP  RH WIND       PRES   REMARKS
DULUTH         MOSUNNY   77  55  46 SW17G26   29.73F
6HR MIN TEMP:  62; 6HR MAX TEMP:  77;

ELY            CLOUDY    73  52  46 SW15G28   29.71S
HIBBING        CLOUDY    73  54  51 SW14G24   29.71S
EVELETH        MOSUNNY   73  52  46 SW14G24   29.73S
DULUTH HARBOR  CLOUDY    57  52  82 E5        29.72F
TWO HARBORS      N/A     79  61  53 S17       29.72S
SILVER BAY     MOSUNNY   77  54  44 SW12G18   29.72S
GRAND MARAIS     N/A     54  40  59 NE5       29.73F
G MARAIS ARPRT MOSUNNY   68  46  45 S13G18    29.77S
$$
MNZ029>031-032-039>041-046>048-054>057-064-231900-
   West Central Minnesota

CITY           SKY/WX    TMP DP  RH WIND       PRES   REMARKS
FERGUS FALLS   CLOUDY    75  55  50 SW12G18   29.67R
WHEATON        CLOUDY    79  57  47 W9        29.71F
MORRIS         MOSUNNY   73  61  64 SW16G22   29.72R
ALEXANDRIA     LGT RAIN  72  58  61 W14       29.74F
ELBOW LAKE     FAIR      74  59  60 SW12G18   29.72S
WADENA         PTSUNNY   72  57  60 SW15      29.71F
GLENWOOD       MOSUNNY   72  61  68 SW16      29.75S
APPLETON       PTSUNNY   75  59  57 SW13      29.73S
BENSON         MOSUNNY   75  57  53 W17G23    29.73S
ORTONVILLE     PTSUNNY   73  57  56 SW8       29.72F
MADISON        MOSUNNY   73  57  56 SW15      29.74S
WILLMAR        PTSUNNY   73  63  68 SW8G17    29.77S
$$
MNZ033>034-036-042>043-049>051-058-059-231900-
   Central Minnesota

CITY           SKY/WX    TMP DP  RH WIND       PRES   REMARKS
ST CLOUD       CLOUDY    75  58  55 SW20G26   29.75R
6HR MIN TEMP:  62; 6HR MAX TEMP:  78;

PAYNESVILLE    CLOUDY    72  59  64 SW12      29.76R
AITKIN         CLOUDY    73  54  49 SW13G21   29.72R
PINE RIVER     CLOUDY    70  61  73 SW7G14    29.76S
BRAINERD       CLOUDY    71  58  63 SW16      29.73F
STAPLES        CLOUDY    72  57  60 SW15G24   29.72F
LONG PRAIRIE   PTSUNNY   68  61  77 SW13G20   29.74F
LITTLE FALLS   CLOUDY    72  55  56 SW7G17    29.74S
LITCHFIELD     MOSUNNY   75  64  69 S8        29.77R
BUFFALO        CLOUDY    74  59  58 SW8       29.78R
MAPLE LAKE     CLOUDY    77  61  56 S9G17     29.77R
HUTCHINSON     MOSUNNY   76  63  65 SW12      29.78R
$$
MNZ037-044-045-052-053-231900-
   East Central Minnesota

CITY           SKY/WX    TMP DP  RH WIND       PRES   REMARKS
PRINCETON      CLOUDY    79  57  47 SW14G21   29.75R
MORA           PTSUNNY   73  55  53 S13       29.76R
CAMBRIDGE      CLOUDY    77  59  53 SW7       29.74R
RUSH CITY      CLOUDY    75  57  53 SW6       29.75R
MOOSE LAKE     CLOUDY    77  54  44 SW14G24   29.72S
HINCKLEY       FAIR      73  59  60 S14       29.75S
CLOQUET        CLOUDY    75  52  43 S13G21    29.73F
MCGREGOR       CLOUDY    72  55  56 S17G24    29.74S
$$
MNZ071>073-080-081-089-090-097-098-231900-
   Southwest Minnesota

CITY           SKY/WX    TMP DP  RH WIND       PRES   REMARKS
MONTEVIDEO     PTSUNNY   73  61  64 W13       29.76S
GRANITE FALLS  CLOUDY    75  64  68 SW12G18   29.77S
CANBY          PTSUNNY   74  63  68 SW14      29.76F
MARSHALL       CLOUDY    72  62  71 SW15      29.76F
REDWOOD FALLS  CLOUDY    76  58  53 S14G24    29.74F
OLIVIA         CLOUDY    70  54  56 SW14G21   29.75S
PIPESTONE      PTSUNNY   72  64  78 SW16G23   29.78S
WINDOM         CLOUDY    77  61  57 S13G20    29.78R
WORTHINGTON    CLOUDY    72  63  73 S13       29.79R
JACKSON        MOSUNNY   77  61  57 S15G24    29.78R
TRACY          CLOUDY    73  64  73 SW12G21   29.77S
SLAYTON        CLOUDY    71  63  76 S14       29.79S
$$
MNZ065>067-074>077-082>085-091>093-231900-
   South Central Minnesota

CITY           SKY/WX    TMP DP  RH WIND       PRES   REMARKS
MANKATO        MOSUNNY   79  57  47 S21G28    29.74F
NEW ULM        CLOUDY    77  59  53 S10       29.75R
ST JAMES       MOSUNNY   73  55  53 S16G25    29.76R
FAIRMONT       CLOUDY    75  61  60 S29       29.76R
FARIBAULT      PTSUNNY   75  59  57 SE26G35   29.77F
OWATONNA       CLOUDY    79  57  47 S17G36    29.77F
WASECA         PTSUNNY   77  57  50 SE21G33   29.77F
ALBERT LEA     LGT RAIN  75  59  57 S22G29    29.79F
$$
MNZ078>079-086>088-094>096-231900-
   Southeast Minnesota

CITY           SKY/WX    TMP DP  RH WIND       PRES   REMARKS
ROCHESTER      PTSUNNY   82  57  42 S24G36    29.83F
6HR MIN TEMP:  65; 6HR MAX TEMP:  82;

RED WING       CLOUDY    82  54  36 S13G18    29.77F
STANTON        CLOUDY    79  56  45 SE18G28   29.74F
DODGE CENTER   CLOUDY    81  55  41 S29G36    29.81F
WINONA         SUNNY     81  52  36 S8        29.84F
AUSTIN         CLOUDY    75  57  53 S16G28    29.82F
PRESTON        PTSUNNY   78  54  43 S16G29    29.86F
$$
ABBREVIATIONS USED IN REMARKS
   TC - TEMPERATURES IN CELSIUS
  WCI - WIND CHILL INDEX
   HX - HEAT INDEX
  VSB - VISIBILITY
$$



USA.gov is the U.S. government's official web portal to all federal, state and local government web resources and services.